Regional Weather Roundup
Issued by NWS Boston, MA

Home | Current Version | Previous Version | Text Only | Print | Product List | Glossary On
Versions: 1 2 3 4 5 6 7 8 9 10 11 12 13 14 15 16 17 18 19 20 21 22 23 24 25 26 27 28 29 30 31 32 33 34 35 36 37 38 39 40 41 42 43 44 45 46 47 48 49 50
000
ASUS41 KBOX 221010
RWRBOX

REGIONAL WEATHER ROUNDUP
NATIONAL WEATHER SERVICE TAUNTON MA
500 AM EST SAT NOV 22 2014

NOTE:  "FAIR" INDICATES FEW OR NO CLOUDS BELOW 12,000 FEET WITH NO
SIGNIFICANT WEATHER AND/OR OBSTRUCTIONS TO VISIBILITY.  THE FOLLOWING
OBSERVATION LOCATIONS DO NOT REPORT PRESENT WEATHER...PROVINCETOWN...
SMITHFIELD...BLOCK ISLAND...KEENE...AND OXFORD.

MAZALL-221100-
EASTERN MASSACHUSETTS

CITY           SKY/WX    TMP DP  RH WIND       PRES   REMARKS
BOSTON         PTCLDY    26  12  55 W10       30.42S WCI  16
BEVERLY        CLEAR     22  10  60 SW7       30.40S WCI  13
LAWRENCE       CLEAR     22  11  62 SW9       30.41S WCI  12
BEDFORD        CLEAR     21  11  65 SW6       30.40F WCI  13
BLUE HILL        N/A     20  10  65 W13       30.37S WCI   7
NORWOOD        CLEAR     21  11  65 SW5       30.43S WCI  15
MARSHFIELD     CLEAR    N/A N/A N/A SW8       30.43F
PLYMOUTH       CLEAR     22  12  65 W8        30.43F WCI  12
TAUNTON        CLEAR     23  11  60 SW5       30.43S WCI  17
NEW BEDFORD    CLEAR     20  13  74 SW5       30.43F WCI  13
$$

MAZALL-221100-
CAPE COD AND THE ISLANDS

CITY           SKY/WX    TMP DP  RH WIND       PRES   REMARKS
FALMOUTH       CLEAR     25  14  63 W12       30.43F WCI  14
HYANNIS        CLEAR     26  13  57 W6        30.42S WCI  19
CHATHAM        CLEAR     24  11  57 W5        30.43F WCI  18
PROVINCETOWN   CLEAR     28  14  54 W14G23    30.42S WCI  17
NANTUCKET      CLEAR     28  15  58 W9        30.44S WCI  19
MARTHAS VNYRD  CLEAR     28  12  51 NW9       30.45S WCI  19
$$

MAZALL-221100-
CENTRAL AND WESTERN MASSACHUSETTS

CITY           SKY/WX    TMP DP  RH WIND       PRES   REMARKS
WORCESTER      CLEAR     20   9  62 W12       30.35F WCI   8
FITCHBURG      CLEAR     22  11  62 S6        30.40S WCI  14
ORANGE         CLEAR     14  10  84 CALM      30.40S
SPRINGFIELD    CLEAR     18  11  73 W2        30.42F
WESTFIELD      CLEAR     18  10  71 S5        30.43S WCI  11
NORTH ADAMS    PTCLDY    16  11  80 CALM      30.39F
PITTSFIELD     CLEAR     13   9  84 CALM      30.33F
$$

RIZALL-221100-
RHODE ISLAND

CITY           SKY/WX    TMP DP  RH WIND       PRES   REMARKS
PROVIDENCE     CLEAR     21  11  65 SW6       30.44F WCI  13
NEWPORT        CLEAR     29  11  47 W8        30.43F WCI  21
BLOCK ISLAND   CLEAR     32  14  47 W12G17    30.44S WCI  23
SMITHFIELD     CLEAR     18   7  62 S3        30.39S
WESTERLY       CLEAR     20  11  68 CALM      30.46F
$$

CTZALL-221100-
CONNECTICUT

CITY           SKY/WX    TMP DP  RH WIND       PRES   REMARKS
BRADLEY INTL   CLEAR     21  11  65 CALM      30.43F
HARTFORD       CLEAR     19  13  77 S3        30.46S
BRIDGEPORT     CLEAR     26  13  57 W5        30.47F WCI  20
DANBURY        CLEAR     19  10  68 SW5       30.45S WCI  12
GROTON         CLEAR     26  12  55 W8        30.46S WCI  18
NEW HAVEN      CLEAR     30  13  49 W3        30.47S
CHESTER        FAIR      25  12  58 W5        30.44S WCI  19
MERIDEN        CLEAR     15  11  83 CALM      30.46F
WILLIMANTIC    CLEAR     17  11  77 CALM      30.45S
OXFORD         CLEAR     19   7  58 SW5       30.42F WCI  13
$$

MEZ002-015-021-024-NHZ003-005-008-011-012-014-VTZ005-008-221100-
NORTHERN NEW ENGLAND

CITY           SKY/WX    TMP DP  RH WIND       PRES   REMARKS
PORTLAND ME    CLEAR     22   8  55 SW3       30.36R
BANGOR ME      CLEAR     16   6  65 SW5       30.29S WCI   9
CONCORD NH     CLEAR     14   7  73 CALM      30.38S
MANCHESTER NH  CLEAR     21  10  62 CALM      30.38S
NASHUA NH      CLEAR     21  12  68 CALM      30.40F
PORTSMOUTH NH  CLEAR     21   8  57 SW7       30.37S WCI  12
JAFFREY NH     CLEAR     17  10  74 S3        30.34S
KEENE NH       CLEAR     16  10  79 S3        30.39S
BURLINGTON VT  PTCLDY    23  12  62 S13G21    30.29F WCI  11
MT. WASHINGTON FOG       -2  -2 100 NW61        N/A  VSB 1/16WCI -36
$$

NYZ052-076-221100-
EASTERN NEW YORK

CITY           SKY/WX    TMP DP  RH WIND       PRES   REMARKS
ALBANY         PTCLDY    20  11  68 S6        30.41F WCI  12
NEW YORK CITY  CLEAR     30  12  47 W5        30.48S WCI  25
$$

ANZALL-221100-
MARINE OBSERVATIONS

STATION/POSITION TIME  TEMP    WIND        PRES    VSBY  WAVE
                       AIR SEA DIR/SP/G                  HT/PER
                 (UTC) (F)     (DEG/KT/KT) (MB)    (MI)  (FT/S)
BOSTON BUOY      0950   29 49  260/ 16/ 21 1029.9F         2/ 3
BUZZARDS BAY     0900          290/ 18/ 23 1031.6F
NANTUCKET SOUND  0950   31 44  300/ 17/ 19 1030.3F         2/ 3
MASS BAY-STELLWA 0904   31 50  270/ 17/ 21   N/A    1 7/8  3/ 4
ISLE OF SHOALS   1000   27     270/ 17/ 20 1028.1R
S OF BLOCK IS    0908      56                N/A           4/ 4
$$

......................KEY.........................
  SKY/WX - SKY CONDITION/PRESENT WEATHER
  TMP    - TEMPERATURE IN FAHRENHEIT
  DWPT   - DEWPOINT IN FAHRENHEIT
  RH     - RELATIVE HUMIDITY IN PERCENT
  WIND   - DIRECTION AND SPEED IN MPH
  PRES   - MEAN SEA LEVEL PRESSURE IN INCHES OF HG
  WCI    - WIND CHILL INDEX
  VSB    - VISIBILITY IN MILES
  HX     - HEAT INDEX
  TC     - TEMPERATURE IN CELSIUS
  VRB    - VARIABLE WIND DIRECTION
  N/A    - NOT AVAILABLE


USA.gov is the U.S. government's official web portal to all federal, state and local government web resources and services.